FW4699 Weather Reports


Display with metric or nautical units.
time (UTC)temp
F
wind
direction
speed
MPH
gust
MPH
rain 1hr
in
rain 24hr
in
rain mn
in
humidity
%
barometer
mb
20260505022016 56 149 6.0 8.0 0.00 0.00 0.00 99 1009.5
20260505021810 56 168 6.0 7.0 0.00 0.00 0.00 99 1009.5
20260505021611 57 178 6.0 7.0 0.00 0.00 0.00 99 1009.5
20260505021410 57 161 6.0 8.0 0.00 0.00 0.00 99 1009.1
20260505021210 57 165 7.0 7.0 0.00 0.00 0.00 99 1009.1
20260505021018 57 174 6.0 7.0 0.00 0.00 0.00 99 1009.1
20260505020810 57 166 6.0 7.0 0.00 0.00 0.00 99 1009.1
20260505020610 57 183 3.0 6.0 0.00 0.00 0.00 99 1009.1
20260505020410 57 182 5.0 8.0 0.00 0.00 0.00 99 1009.1
20260505020211 57 175 5.0 6.0 0.00 0.00 0.00 99 1008.8
20260505020034 57 178 4.0 6.0 0.00 0.00 0.00 99 1009.1
20260505015410 57 166 6.0 8.0 0.00 0.00 0.00 99 1009.1
20260505015210 57 180 5.0 8.0 0.00 0.00 0.00 99 1009.1
20260505014810 57 170 6.0 6.0 0.00 0.00 0.00 99 1009.1
20260505014610 57 178 5.0 8.0 0.00 0.00 0.00 99 1009.1
20260505014211 57 175 4.0 8.0 0.00 0.00 0.00 99 1009.1
20260505014016 57 175 5.0 7.0 0.00 0.00 0.00 99 1009.5
20260505013810 57 157 6.0 8.0 0.00 0.00 0.00 99 1009.5
20260505013610 57 168 6.0 6.0 0.00 0.00 0.00 99 1009.5
20260505013410 57 169 3.0 8.0 0.00 0.00 0.00 99 1009.5
20260505013209 57 177 4.0 6.0 0.00 0.00 0.00 99 1009.5
20260505013024 57 165 6.0 8.0 0.00 0.00 0.00 99 1009.5
20260505012810 57 168 4.0 7.0 0.00 0.00 0.00 99 1009.8
20260505012410 57 174 5.0 9.0 0.00 0.00 0.00 99 1009.5
20260505012211 57 151 6.0 7.0 0.00 0.00 0.00 99 1009.5
20260505011810 57 156 6.0 8.0 0.00 0.00 0.00 99 1009.8
20260505011410 57 173 4.0 6.0 0.00 0.00 0.00 99 1009.8
20260505011017 57 160 6.0 7.0 0.00 0.00 0.00 99 1009.8
20260505010810 57 181 4.0 6.0 0.00 0.00 0.00 99 1009.8
20260505010410 57 174 4.0 6.0 0.00 0.00 0.00 99 1009.8
20260505010211 57 179 5.0 6.0 0.00 0.00 0.00 99 1009.8
20260505010033 57 174 6.0 7.0 0.00 0.00 0.00 99 1009.8
20260505005810 57 167 6.0 6.0 0.00 0.00 0.00 99 1009.8
20260505005610 57 180 6.0 6.0 0.00 0.00 0.00 99 1009.8
20260505005410 57 176 6.0 6.0 0.00 0.00 0.00 99 1009.8
20260505004810 57 180 5.0 6.0 0.00 0.00 0.00 99 1009.8
20260505004610 57 179 6.0 6.0 0.00 0.00 0.00 99 1009.8
20260505004411 57 178 6.0 6.0 0.00 0.00 0.00 99 1009.8
20260505003610 57 179 6.0 6.0 0.00 0.00 0.00 99 1009.8
20260505003411 57 177 6.0 6.0 0.00 0.00 0.00 99 1009.8
20260505003210 57 176 6.0 6.0 0.00 0.00 0.00 99 1009.8
20260505003024 57 176 6.0 6.0 0.00 0.00 0.00 99 1009.8
20260505002810 57 177 6.0 6.0 0.00 0.00 0.00 99 1009.8
20260505002610 57 177 6.0 6.0 0.00 0.00 0.00 99 1009.8
20260505002410 57 179 6.0 6.0 0.00 0.00 0.00 99 1009.8
20260505002210 57 179 6.0 6.0 0.00 0.00 0.00 99 1009.8
20260505002015 57 175 5.0 6.0 0.00 0.00 0.00 99 1009.8
20260505001810 57 178 6.0 6.0 0.00 0.00 0.00 99 1009.8
20260505001611 57 178 6.0 6.0 0.00 0.00 0.00 99 1009.8
20260505001210 57 172 6.0 6.0 0.00 0.00 0.00 99 1009.8
20260505001016 57 178 5.0 6.0 0.00 0.00 0.00 99 1009.8
20260505000810 57 180 6.0 6.0 0.00 0.00 0.00 98 1009.8
20260505000611 57 182 6.0 6.0 0.00 0.00 0.00 98 1009.8
20260505000211 57 179 5.0 6.0 0.00 0.00 0.00 98 1009.8
20260505000038 57 179 6.0 6.0 0.00 0.00 0.00 98 1009.8
20260504235810 57 180 6.0 7.0 0.00 0.00 0.00 98 1009.8
20260504235610 57 175 6.0 6.0 0.00 0.00 0.00 98 1009.8
20260504235410 57 173 5.0 6.0 0.00 0.00 0.00 98 1009.8
20260504235017 56 180 6.0 7.0 0.00 0.00 0.00 98 1009.8
20260504234810 56 180 6.0 8.0 0.00 0.00 0.00 98 1009.8
20260504234610 56 180 8.0 8.0 0.00 0.00 0.00 98 1009.8
20260504234411 56 183 6.0 7.0 0.00 0.00 0.00 98 1009.8
20260504234016 57 180 6.0 7.0 0.00 0.00 0.00 98 1009.8
20260504233810 57 180 6.0 6.0 0.00 0.00 0.00 98 1009.8
20260504233610 57 180 5.0 7.0 0.00 0.00 0.00 98 1009.5
20260504233410 57 180 6.0 7.0 0.00 0.00 0.00 98 1009.8
20260504233210 57 177 6.0 7.0 0.00 0.00 0.00 98 1009.8
20260504233023 57 178 6.0 6.0 0.00 0.00 0.00 98 1009.5
20260504232811 57 180 5.0 6.0 0.00 0.00 0.00 98 1009.5
20260504232610 57 180 5.0 7.0 0.00 0.00 0.00 98 1009.8
20260504232410 57 178 6.0 6.0 0.00 0.00 0.00 98 1009.8
20260504232210 57 176 6.0 6.0 0.00 0.00 0.00 98 1009.8
20260504231810 57 174 6.0 6.0 0.00 0.00 0.00 98 1009.8
20260504231410 57 179 6.0 7.0 0.00 0.00 0.00 98 1009.8
20260504231210 57 180 6.0 6.0 0.00 0.00 0.00 98 1009.8
20260504231016 57 177 6.0 6.0 0.00 0.00 0.00 98 1009.8
20260504230610 57 179 6.0 6.0 0.00 0.00 0.00 98 1009.8
20260504230410 57 179 6.0 7.0 0.00 0.00 0.00 98 1009.8
20260504230210 57 180 6.0 7.0 0.00 0.00 0.00 98 1010.2
20260504230038 57 177 6.0 6.0 0.00 0.00 0.00 98 1010.2
20260504225610 57 177 6.0 7.0 0.00 0.00 0.00 98 1010.2
20260504225410 57 177 6.0 6.0 0.00 0.00 0.00 98 1010.2
20260504225210 57 178 6.0 6.0 0.00 0.00 0.00 98 1010.5
20260504225017 57 176 6.0 6.0 0.00 0.00 0.00 98 1010.5
20260504224610 57 178 6.0 6.0 0.00 0.00 0.00 98 1010.5
20260504224410 57 177 6.0 6.0 0.00 0.00 0.00 98 1010.5
20260504224210 57 176 6.0 6.0 0.00 0.00 0.00 98 1010.5
20260504224017 57 177 6.0 6.0 0.00 0.00 0.00 98 1010.5
20260504223810 57 177 6.0 6.0 0.00 0.00 0.00 98 1010.2
20260504223609 57 177 6.0 6.0 0.00 0.00 0.00 98 1010.5
20260504223410 57 179 5.0 7.0 0.00 0.00 0.00 98 1010.5
20260504223211 57 178 6.0 6.0 0.00 0.00 0.00 98 1010.5
20260504223025 57 178 6.0 6.0 0.00 0.00 0.00 98 1010.5
20260504222810 57 180 6.0 7.0 0.00 0.00 0.00 98 1010.8
20260504222610 57 176 6.0 6.0 0.00 0.00 0.00 98 1010.8
20260504222410 57 180 6.0 7.0 0.00 0.00 0.00 98 1010.5
20260504222210 57 178 6.0 7.0 0.00 0.00 0.00 98 1010.5
20260504222017 57 179 6.0 7.0 0.00 0.00 0.00 98 1010.8
20260504221016 57 176 6.0 7.0 0.00 0.00 0.00 98 1010.8
20260504220810 57 177 6.0 6.0 0.00 0.00 0.00 98 1010.8
20260504220410 57 179 6.0 7.0 0.00 0.00 0.00 97 1010.8
20260504220210 57 178 6.0 7.0 0.00 0.00 0.00 97 1010.5
20260504220036 57 178 6.0 6.0 0.00 0.00 1.27 97 1010.8
20260504215410 57 179 6.0 6.0 0.00 0.00 1.27 97 1011.2
20260504215210 57 178 6.0 6.0 0.00 0.00 1.27 97 1010.8
20260504215016 57 178 6.0 6.0 0.00 0.00 1.27 97 1010.8
20260504214410 57 178 6.0 7.0 0.00 0.00 1.27 97 1011.2
20260504214017 57 177 6.0 7.0 0.00 0.00 1.27 97 1011.2
20260504213610 57 177 6.0 6.0 0.00 0.00 1.27 97 1011.2
20260504213410 57 175 6.0 6.0 0.00 0.00 1.27 97 1011.2
20260504213210 57 180 6.0 7.0 0.00 0.00 1.27 97 1011.2
20260504213025 57 179 6.0 7.0 0.00 0.00 1.27 97 1011.2
20260504212410 57 177 6.0 6.0 0.02 0.00 1.27 97 1011.2
20260504212210 57 178 6.0 7.0 0.02 0.00 1.27 97 1011.2
20260504212017 57 176 6.0 7.0 0.02 0.00 1.27 97 1011.2
20260504211809 57 179 6.0 7.0 0.02 0.00 1.27 97 1011.2
20260504211609 57 176 6.0 8.0 0.00 0.00 1.27 97 1011.2
20260504211410 57 176 7.0 7.0 0.00 0.00 1.27 97 1011.2
20260504211210 57 178 6.0 6.0 0.00 0.00 1.27 97 1011.2
20260504211016 57 180 6.0 8.0 0.00 0.00 1.27 97 1011.2
20260504210810 57 177 6.0 6.0 0.00 0.00 1.27 97 1011.2
20260504210610 57 176 6.0 6.0 0.00 0.00 1.27 97 1011.2
20260504210410 57 179 6.0 6.0 0.00 0.00 1.27 97 1011.2
20260504210034 57 173 6.0 7.0 0.00 0.00 1.27 97 1011.2
20260504205809 57 176 7.0 8.0 0.00 0.00 1.27 97 1011.2
20260504205610 57 178 6.0 8.0 0.00 0.00 1.27 97 1011.2
20260504205409 57 176 6.0 7.0 0.00 0.00 1.27 97 1011.2
20260504205016 57 177 6.0 7.0 0.00 0.00 1.27 97 1011.2
20260504204810 57 177 6.0 7.0 0.00 0.00 1.27 97 1011.2
20260504204610 58 180 6.0 8.0 0.00 0.00 1.27 97 1011.2
20260504204410 58 179 6.0 6.0 0.00 0.00 1.27 97 1011.2
20260504204017 58 178 6.0 7.0 0.00 0.00 1.27 97 1011.2
20260504203810 58 178 7.0 8.0 0.00 0.00 1.27 97 1011.2
20260504203610 58 178 6.0 7.0 0.00 0.00 1.27 97 1011.2
20260504203410 58 175 7.0 7.0 0.00 0.00 1.27 97 1011.2
20260504203210 58 178 6.0 6.0 0.00 0.00 1.27 97 1011.2
20260504202810 58 178 6.0 7.0 0.00 0.00 1.27 97 1011.2
20260504202610 58 180 6.0 7.0 0.00 0.00 1.27 97 1011.2
20260504202410 58 179 6.0 6.0 0.00 0.00 1.27 97 1011.2
20260504202017 58 178 6.0 6.0 0.00 0.00 1.27 97 1011.2
20260504201811 58 178 5.0 6.0 0.00 0.00 1.27 97 1011.2
20260504201610 58 179 6.0 6.0 0.00 0.00 1.27 97 1011.2
20260504201410 58 182 6.0 8.0 0.00 0.00 1.27 97 1011.2
20260504201216 58 179 6.0 8.0 0.00 0.00 1.27 97 1011.2
20260504201016 58 172 7.0 8.0 0.00 0.00 1.27 97 1011.2
20260504200810 58 173 6.0 8.0 0.00 0.00 1.27 97 1011.2
20260504200610 58 179 6.0 7.0 0.00 0.00 1.27 97 1011.2
20260504200410 58 178 6.0 6.0 0.00 0.00 1.27 97 1011.2
20260504200210 58 180 5.0 6.0 0.00 0.00 1.27 97 1011.2
20260504200033 58 179 6.0 6.0 0.02 0.00 1.27 97 1011.2
20260504195810 58 180 6.0 6.0 0.02 0.00 1.27 97 1011.2
20260504195610 58 178 6.0 6.0 0.02 0.00 1.27 97 1011.2
20260504195410 58 180 6.0 7.0 0.02 0.00 1.27 97 1011.2
20260504195210 58 180 6.0 7.0 0.00 0.00 1.27 97 1011.5
20260504195016 58 180 6.0 6.0 0.00 0.00 1.27 97 1011.2
20260504194810 58 177 5.0 6.0 0.00 0.00 1.27 97 1011.2
20260504194210 58 178 6.0 7.0 0.02 0.00 1.27 96 1011.2
20260504194016 59 180 5.0 6.0 0.02 0.00 1.27 96 1011.5
20260504193810 58 181 6.0 6.0 0.02 0.00 1.27 96 1011.2
20260504193610 59 180 6.0 6.0 0.00 0.00 1.27 96 1011.2
20260504193410 59 179 6.0 7.0 0.00 0.00 1.27 96 1011.2
20260504193210 59 180 6.0 7.0 0.00 0.00 1.27 96 1011.2
20260504193025 59 179 6.0 6.0 0.00 0.00 1.27 96 1011.2
20260504192610 59 179 6.0 7.0 0.00 0.00 1.27 96 1011.2
20260504192410 59 179 6.0 7.0 0.00 0.00 1.27 96 1011.2
20260504192016 59 171 6.0 6.0 0.02 0.00 1.27 96 1011.2
20260504191810 59 178 6.0 6.0 0.02 0.00 1.27 96 1011.2
20260504191210 59 179 6.0 6.0 0.00 0.00 1.27 96 1011.2
20260504191016 59 179 6.0 7.0 0.00 0.00 1.27 96 1011.2
20260504190810 59 178 6.0 6.0 0.00 0.00 1.27 96 1011.2
20260504190610 59 180 6.0 6.0 0.00 0.00 1.27 96 1011.2
20260504190410 59 180 6.0 6.0 0.00 0.00 1.27 96 1011.2
20260504190210 59 180 6.0 6.0 0.00 0.00 1.27 96 1011.2
20260504185810 59 177 6.0 6.0 0.00 0.00 1.27 96 1011.2
20260504185610 59 179 6.0 7.0 0.00 0.00 1.27 96 1011.2
20260504185410 59 180 6.0 6.0 0.00 0.00 1.27 96 1011.2
20260504185210 59 179 6.0 7.0 0.00 0.00 1.27 96 1011.2
20260504184810 59 177 7.0 7.0 0.00 0.00 1.27 96 1011.2
20260504184410 59 174 6.0 7.0 0.00 0.00 1.27 96 1011.2
20260504184212 59 177 6.0 7.0 0.00 0.00 1.27 96 1011.2
20260504184016 59 179 6.0 7.0 0.00 0.00 1.27 96 1011.2
20260504183810 59 180 6.0 7.0 0.00 0.00 1.27 96 1011.2
20260504183610 59 180 6.0 7.0 0.00 0.00 1.27 96 1011.2
20260504183410 59 180 7.0 7.0 0.00 0.00 1.27 96 1011.2
20260504183211 59 182 6.0 7.0 0.00 0.00 1.27 96 1011.2
20260504183025 59 178 7.0 7.0 0.02 0.00 1.27 95 1010.8
20260504182811 59 180 6.0 8.0 0.02 0.00 1.27 95 1010.8
20260504182609 59 176 7.0 8.0 0.02 0.00 1.27 95 1011.2
20260504182410 59 175 7.0 7.0 0.02 0.00 1.27 95 1010.8
20260504182210 59 181 6.0 7.0 0.00 0.00 1.27 95 1010.8
20260504182016 59 179 6.0 7.0 0.00 0.00 1.27 95 1010.8
20260504181810 59 180 6.0 7.0 0.00 0.00 1.27 95 1010.8
20260504181610 60 180 6.0 7.0 0.00 0.00 1.27 95 1010.8
20260504181017 60 179 6.0 7.0 0.00 0.00 1.27 95 1010.5
20260504180611 60 179 6.0 7.0 0.00 0.00 1.27 95 1011.2
20260504180210 60 183 6.0 6.0 0.00 0.00 1.27 95 1010.8
20260504180033 60 181 5.0 6.0 0.00 0.00 1.27 95 1010.8
20260504175810 60 179 5.0 6.0 0.02 0.00 1.27 95 1010.8
20260504175610 60 177 6.0 6.0 0.02 0.00 1.27 95 1010.8
20260504175210 60 179 6.0 6.0 0.02 0.00 1.27 95 1010.8
20260504175017 60 178 6.0 6.0 0.02 0.00 1.27 95 1010.8
20260504174610 60 180 6.0 6.0 0.02 0.00 1.27 95 1010.8
20260504174410 60 180 5.0 6.0 0.02 0.00 1.27 95 1010.8
20260504174016 60 180 6.0 6.0 0.02 0.00 1.27 95 1010.8
20260504173810 60 182 6.0 6.0 0.02 0.00 1.01 95 1010.5
20260504173610 60 179 5.0 6.0 0.02 0.00 1.01 95 1010.8
20260504173410 60 180 6.0 6.0 0.02 0.00 1.01 95 1010.8
20260504173025 60 180 6.0 7.0 0.00 0.00 1.01 95 1010.8
20260504172810 60 180 5.0 6.0 0.00 0.00 1.01 95 1010.8
20260504172610 60 179 6.0 6.0 0.00 0.00 1.01 95 1010.8
20260504172410 60 180 6.0 7.0 0.00 0.00 1.01 95 1010.5
20260504172212 60 181 6.0 6.0 0.00 0.00 1.01 95 1010.8
20260504172017 60 180 6.0 6.0 0.00 0.00 1.01 95 1010.5
20260504171810 60 178 6.0 7.0 0.00 0.00 1.01 95 1010.8
20260504171611 60 177 6.0 6.0 0.00 0.00 1.01 95 1010.8
20260504171410 60 178 6.0 6.0 0.00 0.00 1.01 95 1010.8
20260504171210 60 180 6.0 6.0 0.00 0.00 1.01 95 1010.8
20260504171017 60 179 6.0 6.0 0.00 0.00 1.01 95 1010.8
20260504170810 60 178 6.0 6.0 0.02 0.00 1.01 95 1010.8
20260504160410 59 180 6.0 6.0 0.02 0.00 1.01 96 1011.2
20260504160212 59 181 6.0 6.0 0.02 0.00 1.01 96 1010.8
20260504151017 59 183 6.0 6.0 0.02 0.00 0.76 94 1011.2
20260504150810 59 177 5.0 6.0 0.02 0.00 0.76 94 1011.2
20260504150610 59 179 6.0 6.0 0.00 0.00 0.76 93 1011.2
20260504150410 60 178 5.0 7.0 0.00 0.00 0.76 93 1011.2
20260504150210 60 180 6.0 7.0 0.00 0.00 0.76 93 1011.2
20260504141210 60 179 6.0 7.0 0.02 0.00 0.76 94 1011.5
20260504141017 60 161 6.0 8.0 0.02 0.00 0.76 94 1011.5
20260504140810 60 170 7.0 8.0 0.02 0.00 0.76 94 1011.5
20260504140611 61 175 6.0 8.0 0.02 0.00 0.76 94 1011.2
20260504140410 61 173 6.0 8.0 0.02 0.00 0.50 95 1011.5
20260504140211 61 164 5.0 8.0 0.02 0.00 0.50 95 1011.5
20260504130809 61 176 4.0 6.0 0.00 0.00 0.50 95 1011.9
20260504130610 61 167 4.0 7.0 0.00 0.00 0.50 95 1011.9
20260504130410 61 179 5.0 7.0 0.00 0.00 0.50 94 1011.9
20260504130210 61 172 6.0 6.0 0.00 0.00 0.50 94 1011.9
20260504110610 59 172 4.0 7.0 0.07 0.00 0.50 95 1012.5
20260504110410 59 170 6.0 6.0 0.07 0.00 0.50 95 1012.5
20260504110210 59 165 5.0 8.0 0.05 0.00 0.25 94 1012.5
20260504100612 61 176 3.0 5.0 0.00 0.00 0.00 92 1012.2
20260504100410 61 174 5.0 5.0 0.00 0.00 0.00 92 1012.5
20260504100210 61 179 4.0 6.0 0.00 0.00 0.00 92 1012.5
20260504081811 58 178 6.0 7.0 0.00 0.00 0.00 98 1012.5
20260504081610 58 179 6.0 7.0 0.00 0.00 0.00 98 1012.2
20260504081410 58 179 6.0 7.0 0.00 0.00 0.00 98 1012.2
20260504081210 58 180 6.0 6.0 0.00 0.00 0.00 98 1012.5
20260504081017 58 177 6.0 6.0 0.00 0.00 0.00 98 1012.2
20260504080811 58 186 5.0 7.0 0.00 0.00 0.00 98 1012.2
20260504080211 58 179 6.0 6.0 0.00 0.00 0.00 99 1012.5
20260504070211 57 180 6.0 6.0 0.00 0.00 0.00 98 1012.2
20260504060210 56 175 5.0 6.0 0.00 0.00 0.00 98 1011.9
20260504050610 55 178 6.0 6.0 0.00 0.00 0.00 97 1011.2
20260504050409 55 175 6.0 6.0 0.00 0.00 0.00 97 1011.2
20260504050210 55 177 6.0 6.0 0.00 0.00 0.00 97 1011.2
20260504045610 55 177 5.0 6.0 0.00 0.00 0.00 97 1011.2
20260504045409 55 178 6.0 6.0 0.00 0.00 0.00 97 1011.5
20260504045016 55 177 6.0 6.0 0.00 0.00 0.00 97 1011.2
20260504044610 55 178 5.0 6.0 0.00 0.00 0.00 97 1011.2
20260504044410 55 177 6.0 6.0 0.00 0.00 0.00 97 1011.2
20260504044015 55 176 6.0 6.0 0.00 0.00 0.00 97 1011.2
20260504043809 55 177 6.0 6.0 0.00 0.00 0.00 97 1011.2
20260504043611 55 177 6.0 6.0 0.00 0.00 0.00 97 1011.2
20260504043409 55 176 6.0 6.0 0.00 0.00 0.00 97 1011.2
20260504043209 55 177 6.0 6.0 0.00 0.00 0.00 97 1011.2
20260504043028 55 173 6.0 6.0 0.00 0.00 0.00 97 1011.2
20260504042809 55 177 6.0 6.0 0.00 0.00 0.00 97 1011.2
20260504042610 55 178 6.0 6.0 0.00 0.00 0.00 97 1011.2
20260504042410 55 179 6.0 6.0 0.00 0.00 0.00 97 1011.2
20260504041809 55 175 6.0 6.0 0.00 0.00 0.00 97 1011.2
20260504041610 55 179 6.0 6.0 0.00 0.00 0.00 97 1011.2
20260504041411 55 177 5.0 6.0 0.00 0.00 0.00 97 1011.5
20260504041018 55 180 6.0 6.0 0.00 0.00 0.00 97 1011.5
20260504040810 55 177 6.0 6.0 0.00 0.00 0.00 97 1011.2
20260504040410 55 176 6.0 6.0 0.00 0.00 0.00 97 1011.2
20260504040210 55 175 5.0 6.0 0.00 0.00 0.00 97 1011.5
20260504040034 55 176 6.0 6.0 0.00 0.00 0.00 97 1011.2
20260504035810 55 175 5.0 6.0 0.00 0.00 0.00 97 1011.2
20260504035610 55 176 6.0 6.0 0.00 0.00 0.00 97 1011.5
20260504035410 55 177 6.0 6.0 0.00 0.00 0.00 97 1011.2
20260504035210 55 178 6.0 6.0 0.00 0.00 0.00 97 1011.2
20260504035016 55 175 6.0 6.0 0.00 0.00 0.00 97 1011.5
20260504034809 55 176 6.0 6.0 0.00 0.00 0.00 97 1011.5
20260504034609 55 176 6.0 6.0 0.00 0.00 0.00 97 1011.5
20260504034410 55 178 5.0 6.0 0.00 0.00 0.00 97 1011.5
20260504034210 55 176 6.0 6.0 0.00 0.00 0.00 97 1011.5
20260504034017 55 176 6.0 6.0 0.00 0.00 0.00 97 1011.5
20260504033809 55 179 6.0 6.0 0.00 0.00 0.00 97 1011.5
20260504033610 55 176 6.0 6.0 0.00 0.00 0.00 97 1011.5
20260504033410 55 176 6.0 6.0 0.00 0.00 0.00 97 1011.5
20260504033210 55 176 6.0 6.0 0.00 0.00 0.00 97 1011.5
20260504033023 55 178 6.0 6.0 0.00 0.00 0.00 97 1011.5
20260504032810 55 177 6.0 6.0 0.00 0.00 0.00 97 1011.5
20260504032610 55 177 6.0 6.0 0.00 0.00 0.00 97 1011.5
20260504032017 55 177 6.0 6.0 0.00 0.00 0.00 96 1011.5
20260504031410 55 177 6.0 6.0 0.00 0.00 0.00 96 1011.9
20260504031210 55 177 6.0 7.0 0.00 0.00 0.00 96 1011.5
20260504031016 55 177 6.0 6.0 0.00 0.00 0.00 96 1011.5
20260504030809 55 176 6.0 6.0 0.00 0.00 0.00 96 1011.9
20260504030610 55 176 6.0 6.0 0.00 0.00 0.00 96 1011.5
20260504030409 55 177 6.0 6.0 0.00 0.00 0.00 96 1011.9
20260504030034 55 176 6.0 6.0 0.00 0.00 0.00 96 1011.5
20260504025809 55 178 6.0 6.0 0.00 0.00 0.00 96 1011.5
20260504025609 55 177 6.0 6.0 0.00 0.00 0.00 96 1011.5
20260504025410 55 179 6.0 6.0 0.00 0.00 0.00 96 1011.9
20260504025210 55 176 6.0 6.0 0.00 0.00 0.00 96 1011.9
20260504025016 55 178 5.0 6.0 0.00 0.00 0.00 96 1011.9
20260504024809 55 178 6.0 6.0 0.00 0.00 0.00 96 1011.5
20260504024609 55 180 6.0 6.0 0.00 0.00 0.00 96 1011.5
20260504024409 55 175 6.0 6.0 0.00 0.00 0.00 96 1011.5
20260504024210 55 177 5.0 6.0 0.00 0.00 0.00 96 1011.9
20260504023810 55 177 6.0 6.0 0.00 0.00 0.00 96 1011.5
20260504023610 55 178 6.0 7.0 0.00 0.00 0.00 96 1011.5
20260504023410 55 176 6.0 6.0 0.00 0.00 0.00 96 1011.5
20260504023209 55 177 6.0 6.0 0.00 0.00 0.00 96 1011.9
20260504023024 55 178 6.0 6.0 0.00 0.00 0.00 96 1011.9
20260504022809 55 176 6.0 6.0 0.00 0.00 0.00 96 1011.5
20260504022609 55 178 6.0 6.0 0.00 0.00 0.00 96 1011.9
20260504022410 55 175 6.0 6.0 0.00 0.00 0.00 96 1011.9
20260504022210 55 177 6.0 6.0 0.00 0.00 0.00 96 1011.9